weather.gov     
National Weather Service

Regional Weather Roundup
NWS Homepage
This page is being discontinued on March 12, 2014.
The same data is available at this site. Please update your bookmarks.
Thank you, and we apologize for the inconvenience.
Please send an email to SR-SRH.Webmaster@noaa.gov with any concerns.


Current Version
Previous Version:    01  02  03  04  05  06  07  08  09  10  11  12  13  14  15  16  17  18  19  20  21  22  23  24  25  26  27  28  29  30  
   31  32  33  34  35  36  37  38  39  40  41  42  43  44  45  46  47  48  49  50  51  52  53  
[Printable]
936
ASUS45 KTFX 020919
RWRMT
MONTANA HOURLY WEATHER ROUNDUP
NATIONAL WEATHER SERVICE GREAT FALLS MT
319 AM MDT TUE SEP 2 2014

NOTE: "FAIR" INDICATES FEW OR NO CLOUDS BELOW 12000 FEET WITH NO
SIGNIFICANT WEATHER AND/OR OBSTRUCTIONS TO VISIBILITY.

* THESE STATIONS ARE NOT UNDER NWS QUALITY CONTROL. THEY DO NOT
   REPORT WEATHER SUCH AS PRECIPITATION OR FOG.

MTZ001>007-043-021000-
WEST OF THE DIVIDE
CITY           SKY/WX    TMP DP  RH WIND       PRES   REMARKS
KALISPELL      CLOUDY    45  43  93 CALM      29.93F
MISSOULA       PTCLDY    46  39  77 CALM      30.00S
BUTTE          CLEAR     39  36  89 E3        30.06F
MULLAN PASS    PTCLDY    46  36  68 VRB7      30.02F
* LINCOLN      N/A       40  36  86 N2         N/A
* LOOKOUT PASS N/A       43  38  83 N/A        N/A
* POLSON       N/A       50  39  66 SE2        N/A
* RONAN APT    MOCLDY    48  41  77 N/A        N/A
* SEELEY LAKE  N/A       37  36  96 N1         N/A
* THOMP F APT  PTCLDY    46  35  66 NE4        N/A
$$

MTZ008-052>055-021000-
SOUTHWEST MONTANA
CITY           SKY/WX    TMP DP  RH WIND       PRES   REMARKS
BOZEMAN        CLEAR     41  37  86 SE8       30.00S
DILLON         CLEAR     50  37  61 S8        30.03F
W YELLOWSTONE  CLEAR     36  36 100 CALM      30.14S
* THREE FORKS  CLEAR     45  27  49 N/A        N/A
* BOULDER HILL N/A       52  30  43 SW4G16     N/A
* MONIDA PASS  N/A       44  36  74 SE14       N/A
* RAYNOLDS PAS N/A       44  27  51 SE14       N/A
* WHITEHALL    N/A       51  37  59 W5         N/A
* WISE RIVER   N/A       40  33  76 SE2        N/A
$$

MTZ009>010-012-014-046-048-049-054-021000-
EAST SLOPES AND CENTRAL MONTANA
CITY           SKY/WX    TMP DP  RH WIND       PRES   REMARKS
CUT BANK       MOCLDY    52  37  57 SW9       29.88S
GREAT FALLS    CLOUDY    52  37  57 SW9       29.91S
HELENA         MOCLDY    57  37  47 S3        29.97R
MALMSTROM AFB  CLOUDY    52  37  57 SW7       29.92S
* CONRAD       PTCLDY    48  41  77 SW8        N/A
* EAST GLACIER N/A       52  36  55 W13G19     N/A
* MONARCH      N/A       50  26  39 SW7        N/A
* PENDROY      N/A       51  35  54 N6         N/A
* ROGERS PASS  N/A       50  35  57 SE17G27    N/A
* SAINT MARY   N/A       54  37  53 S9G18      N/A
* SWEET GRASS  N/A       55  35  47 W16G22     N/A
* WHITE SULPH  N/A       47  35  63 SE3        N/A
$$

MTZ011-013-016-021-035-040-045-047-050-051-021000-
NORTH CENTRAL MONTANA
CITY           SKY/WX    TMP DP  RH WIND       PRES   REMARKS
HAVRE          MOCLDY    52  39  61 W5        29.83S
LEWISTOWN      PTCLDY    45  37  74 SE6       29.93S
* CHINOOK      MOCLDY    52  41  66 NW6       29.83R
* FORT BENTON  MOCLDY    52  37  57 SW6       29.88S
* CHESTER      N/A       51  37  59 N4G9       N/A
* DENTON       N/A       43  39  86 S4         N/A
* GEYSER       N/A       46  37  71 W10        N/A
* JUDITH GAP   N/A       48  37  66 W2         N/A
* LOMA         N/A       51  39  64 W3         N/A
$$

MTZ017>020-022>027-061-062-021000-
NORTHEAST MONTANA
CITY           SKY/WX    TMP DP  RH WIND       PRES   REMARKS
GLASGOW        PTCLDY    55  46  72 W9        29.79S
GLENDIVE       PTCLDY    52  46  80 S7        29.84F
JORDAN         CLEAR     52  45  77 W8        29.84F
SIDNEY         CLOUDY    54  50  86 S8        29.81F
WOLF POINT     MOCLDY    54  48  80 S3        29.78F
* BEAVER HILL  N/A       54  44  69 S13        N/A
* CIRCLE       N/A       53  45  74 N/A        N/A
* LINDSAY DVD  N/A       54  42  64 SW11       N/A
* NAVAJO       N/A       53  46  77 W12        N/A
$$

MTZ028>042-056>058-021000-
SOUTHCENTRAL AND SOUTHEAST MONTANA
CITY           SKY/WX    TMP DP  RH WIND       PRES   REMARKS
BAKER          PTCLDY    55  43  64 SW13      29.89F
BILLINGS       CLEAR     55  43  64 S6        29.92F
LIVINGSTON     CLEAR     45  37  74 NW7       29.97F
MILES CITY     CLEAR     48  43  83 S9        29.87S
* LAUREL APT   CLEAR     52  39  61 N/A        N/A
* ROUNDUP APT  CLEAR     52  37  57 N/A        N/A
* ALZADA       N/A       47  42  83 E4         N/A
* HYSHAM       N/A       55  32  42 W5         N/A
* LAME DEER    N/A       54  41  62 S9         N/A
* REED POINT   N/A       45  43  93 E3         N/A
* ROSCOE HILL  N/A       54  29  38 SE4        N/A
$$

REGIONAL REPORTS...DAKOTAS
CITY           SKY/WX    TMP DP  RH WIND       PRES   REMARKS
WILLISTON      RAIN      61  48  62 SW13      29.78F
DICKINSON      MOCLDY    50  46  86 S10       29.84F
BEACH          N/A       52  46  80 SW13      29.86F
CROSBY         PTCLDY    52  52 100 S10       29.75F
TIOGA          MOCLDY    50  50 100 S6        29.82S
WATFORD CITY   MOCLDY    52  50  93 N7        29.79S
BISMARCK       PTCLDY    54  48  80 W3        29.85F
GRAND FORKS    CLEAR     55  48  77 SW8       29.76S
FARGO          CLEAR     54  50  86 SW6       29.81S
BUFFALO SD     CLEAR     50  43  77 SW9       29.86S
RAPID CITY     CLEAR     46  41  83 CALM      29.99S
$$

REGIONAL REPORTS...WYOMING/IDAHO/WASHINGTON
CITY           SKY/WX    TMP DP  RH WIND       PRES   REMARKS
GILLETTE       CLEAR     50  43  77 S12       30.02F
SHERIDAN       CLEAR     50  43  77 S8        29.96F
CODY           CLEAR     54  36  51 CALM      30.01S
YELLOWSTONE LA CLEAR     30  30 100 CALM      30.21F
SALMON         CLEAR     45  41  86 CALM      30.02F
MULLAN PASS    PTCLDY    46  36  68 VRB7      30.02S
SAND POINT     CLOUDY    46  46 100 CALM      29.90F
SPOKANE        MOCLDY    54  39  57 S9        29.90F
$$

REGIONAL REPORTS...ALBERTA
CITY           SKY/WX    TMP DP  RH WIND       PRES   REMARKS
CALGARY        LGT RAIN  52  41  66 S6        29.81S
LETHBRIDGE     MOCLDY    52  41  66 W7        29.82F
MEDICINE HAT   CLEAR     48  45  89 SW3       29.79S
EDMONTON       MOCLDY    46  45  96 SW5       29.74S
WATERTON GATE  N/A       55  37  51 SW17G29    N/A
CARDSTON       N/A       54  39  57 SW3        N/A
$$

REGIONAL REPORTS...SASKATCHEWAN
CITY           SKY/WX    TMP DP  RH WIND       PRES   REMARKS
SWIFT CURRENT  CLEAR     50  45  83 W10       29.73F
REGINA         N/A       50  45  83 E7        29.71S
VAL MARIE      N/A       50  43  77 W2         N/A
ASSINIBOIA     N/A       50  45  83 W7         N/A
CORONACH       N/A       54  46  74 SW10       N/A

$$





U.S. Dept. of Commerce
NOAA National Weather Service
1325 East West Highway
Silver Spring, MD 20910
E-mail: w-nws.webmaster@noaa.gov
Page last modified: May 16, 2007
NATIONAL WEATHER SERVICE: for Safety, for Work, for Fun - FOR LIFE